Location: Asheville, NC
(35.6000°N, 82.5500°W)
Time: 17:29:46
(UTC-04:00)

Vanguard 1 - Pass Details

Date: 11 February 2018
Orbit: 650 x 3833 km, 34.3° (Epoch: 21 May)

Event Time Altitude Azimuth Distance (km) Brightness Sun altitude
Rises 00:37:36 0° 266° (W) 3,168 - -68.4°
Reaches altitude 10° 00:40:29 10° 245° (WSW) 2,464 - -68.4°
Maximum altitude 00:44:14 18° 203° (SSW) 2,313 - -68.4°
Drops below altitude 10° 00:49:11 10° 164° (SSE) 3,399 - -68.4°
Sets 00:54:15 0° 148° (SSE) 5,000 - -68.3°
